| time (UTC) | temp C | wind direction | speed KPH | gust KPH | rain 1hr cm | rain 24hr cm | rain mn cm | humidity % | barometer mb |
| 20260508094808 | 19 | 74 | 1.6 | 4.8 | 0.00 | 0.00 | 0.00 | 46 | 1012.4 |
| 20260508093531 | 19 | 110 | 3.2 | 4.8 | 0.00 | 0.00 | 0.00 | 46 | 1012.2 |
| 20260508092048 | 20 | 136 | 3.2 | 9.7 | 0.00 | 0.00 | 0.00 | 44 | 1011.9 |
| 20260508090703 | 21 | 106 | 4.8 | 6.4 | 0.00 | 0.00 | 0.00 | 43 | 1011.6 |
| 20260508085323 | 21 | 62 | 1.6 | 3.2 | 0.00 | 0.00 | 0.00 | 43 | 1011.3 |
| 20260508083923 | 21 | 319 | 3.2 | 9.7 | 0.00 | 0.00 | 0.00 | 43 | 1011.2 |
| 20260508082547 | 21 | 61 | 6.4 | 12.9 | 0.00 | 0.00 | 0.00 | 43 | 1010.9 |
| 20260508081213 | 22 | 341 | 4.8 | 12.9 | 0.00 | 0.00 | 0.00 | 42 | 1010.8 |
| 20260508075916 | 23 | 251 | 8.0 | 17.7 | 0.00 | 0.00 | 0.00 | 31 | 1010.2 |
| 20260508074708 | 23 | 248 | 8.0 | 29.0 | 0.00 | 0.00 | 0.00 | 29 | 1010.1 |
| 20260508073503 | 24 | 241 | 9.7 | 27.4 | 0.00 | 0.00 | 0.00 | 28 | 1009.9 |
| 20260508072003 | 25 | 248 | 8.0 | 20.9 | 0.00 | 0.00 | 0.00 | 28 | 1009.8 |
| 20260508070508 | 25 | 248 | 9.7 | 20.9 | 0.00 | 0.00 | 0.00 | 27 | 1009.8 |
| 20260508065113 | 25 | 241 | 11.3 | 22.5 | 0.00 | 0.00 | 0.00 | 27 | 1009.8 |
| 20260508063648 | 25 | 230 | 9.7 | 29.0 | 0.00 | 0.00 | 0.00 | 30 | 1009.8 |
| 20260508062447 | 25 | 240 | 11.3 | 33.8 | 0.00 | 0.00 | 0.00 | 32 | 1009.6 |
| 20260508061248 | 25 | 261 | 8.0 | 20.9 | 0.00 | 0.00 | 0.00 | 32 | 1009.7 |
| 20260508055913 | 25 | 235 | 14.5 | 24.1 | 0.00 | 0.00 | 0.00 | 33 | 1009.8 |
| 20260508054613 | 24 | 224 | 14.5 | 30.6 | 0.00 | 0.00 | 0.00 | 34 | 1009.8 |
| 20260508053228 | 24 | 223 | 8.0 | 24.1 | 0.00 | 0.00 | 0.00 | 34 | 1009.8 |
| 20260508051853 | 25 | 241 | 11.3 | 33.8 | 0.00 | 0.00 | 0.00 | 35 | 1009.8 |
| 20260508050441 | 25 | 244 | 9.7 | 20.9 | 0.00 | 0.00 | 0.00 | 36 | 1010.0 |
| 20260508045207 | 24 | 238 | 11.3 | 25.7 | 0.00 | 0.00 | 0.00 | 37 | 1010.2 |
| 20260508043728 | 24 | 240 | 11.3 | 24.1 | 0.00 | 0.00 | 0.00 | 39 | 1010.5 |
| 20260508042404 | 23 | 259 | 11.3 | 27.4 | 0.00 | 0.00 | 0.00 | 39 | 1010.5 |
| 20260508041108 | 23 | 241 | 6.4 | 35.4 | 0.00 | 0.00 | 0.00 | 41 | 1010.4 |
| 20260508035611 | 23 | 253 | 9.7 | 30.6 | 0.00 | 0.00 | 0.00 | 44 | 1010.4 |
| 20260508034341 | 22 | 254 | 8.0 | 22.5 | 0.00 | 0.00 | 0.00 | 46 | 1010.4 |
| 20260508032908 | 22 | 256 | 11.3 | 29.0 | 0.00 | 0.00 | 0.00 | 49 | 1010.5 |
| 20260508031618 | 22 | 246 | 11.3 | 29.0 | 0.00 | 0.00 | 0.00 | 51 | 1010.7 |
| 20260508030340 | 22 | 254 | 8.0 | 25.7 | 0.00 | 0.00 | 0.00 | 54 | 1010.8 |
| 20260508025123 | 22 | 258 | 6.4 | 22.5 | 0.00 | 0.00 | 0.00 | 54 | 1010.7 |
| 20260508023648 | 23 | 237 | 12.9 | 30.6 | 0.00 | 0.00 | 0.00 | 52 | 1010.6 |
| 20260508022323 | 23 | 219 | 9.7 | 29.0 | 0.00 | 0.00 | 0.00 | 53 | 1010.7 |
| 20260508020938 | 22 | 235 | 9.7 | 24.1 | 0.00 | 0.00 | 0.00 | 53 | 1010.5 |
| 20260508015501 | 22 | 280 | 9.7 | 24.1 | 0.00 | 0.00 | 0.00 | 56 | 1010.4 |
| 20260508014055 | 22 | 240 | 4.8 | 11.3 | 0.00 | 0.00 | 0.00 | 57 | 1010.5 |
| 20260508012808 | 21 | 242 | 8.0 | 22.5 | 0.00 | 0.00 | 0.00 | 60 | 1010.6 |
| 20260508011338 | 21 | 264 | 9.7 | 17.7 | 0.00 | 0.00 | 0.00 | 61 | 1010.7 |
| 20260508005852 | 21 | 252 | 8.0 | 16.1 | 0.00 | 0.00 | 0.00 | 61 | 1010.6 |
| 20260508004543 | 21 | 247 | 8.0 | 14.5 | 0.00 | 0.00 | 0.00 | 62 | 1010.7 |
| 20260508003333 | 21 | 237 | 4.8 | 12.9 | 0.00 | 0.00 | 0.00 | 63 | 1010.7 |
| 20260508002043 | 21 | 248 | 6.4 | 14.5 | 0.00 | 0.00 | 0.00 | 64 | 1010.8 |
| 20260508000643 | 21 | 108 | 0.0 | 1.6 | 0.00 | 0.00 | 0.00 | 65 | 1010.4 |
| 20260507235227 | 20 | 77 | 1.6 | 3.2 | 0.00 | 0.00 | 0.00 | 68 | 1010.5 |
| 20260507233950 | 20 | 338 | 1.6 | 3.2 | 0.00 | 0.00 | 0.00 | 69 | 1010.5 |
| 20260507232701 | 20 | 287 | 1.6 | 3.2 | 0.00 | 0.00 | 0.00 | 68 | 1010.5 |
| 20260507231433 | 20 | 252 | 4.8 | 9.7 | 0.00 | 0.00 | 0.00 | 68 | 1011.0 |
| 20260507230203 | 20 | 239 | 4.8 | 16.1 | 0.00 | 0.00 | 0.00 | 68 | 1011.0 |
| 20260507224824 | 18 | 249 | 4.8 | 12.9 | 0.00 | 0.00 | 0.00 | 71 | 1011.0 |
| 20260507223453 | 18 | 130 | 0.0 | 1.6 | 0.00 | 0.00 | 0.00 | 79 | 1011.0 |
| 20260507222222 | 17 | 129 | 1.6 | 1.6 | 0.00 | 0.00 | 0.00 | 80 | 1011.2 |
| 20260507220947 | 17 | 117 | 3.2 | 4.8 | 0.00 | 0.00 | 0.00 | 82 | 1011.0 |
| 20260507215708 | 17 | 343 | 0.0 | 1.6 | 0.00 | 0.00 | 0.00 | 82 | 1010.9 |
| 20260507214453 | 17 | 12 | 1.6 | 3.2 | 0.00 | 0.00 | 0.00 | 83 | 1010.8 |
| 20260507213245 | 17 | 128 | 1.6 | 3.2 | 0.00 | 0.00 | 0.00 | 83 | 1010.8 |
| 20260507212048 | 17 | 105 | 1.6 | 3.2 | 0.00 | 0.00 | 0.00 | 83 | 1010.7 |
| 20260507210628 | 17 | 197 | 0.0 | 1.6 | 0.00 | 0.00 | 0.00 | 81 | 1010.5 |
| 20260507205343 | 17 | 71 | 1.6 | 1.6 | 0.00 | 0.00 | 0.00 | 79 | 1010.2 |
| 20260507204012 | 16 | 117 | 1.6 | 3.2 | 0.00 | 0.00 | 0.00 | 83 | 1010.5 |
| 20260507202708 | 17 | 126 | 1.6 | 3.2 | 0.00 | 0.00 | 0.00 | 82 | 1010.6 |
| 20260507201343 | 17 | 0.0 | 0.0 | 0.00 | 0.00 | 0.00 | 81 | 1010.6 | |
| 20260507195938 | 17 | 125 | 1.6 | 3.2 | 0.00 | 0.00 | 0.00 | 80 | 1010.4 |
| 20260507194626 | 17 | 127 | 0.0 | 1.6 | 0.00 | 0.00 | 0.00 | 79 | 1010.2 |
| 20260507193138 | 17 | 120 | 0.0 | 1.6 | 0.00 | 0.00 | 0.00 | 80 | 1010.3 |
| 20260507191748 | 17 | 194 | 1.6 | 1.6 | 0.00 | 0.00 | 0.00 | 79 | 1010.8 |
| 20260507190328 | 17 | 247 | 0.0 | 3.2 | 0.00 | 0.00 | 0.00 | 78 | 1010.6 |
| 20260507184923 | 17 | 222 | 0.0 | 0.0 | 0.00 | 0.00 | 0.00 | 79 | 1010.4 |
| 20260507183538 | 17 | 222 | 0.0 | 1.6 | 0.00 | 0.00 | 0.00 | 79 | 1010.5 |
| 20260507182207 | 17 | 221 | 0.0 | 1.6 | 0.00 | 0.00 | 0.00 | 78 | 1010.6 |
| 20260507180943 | 18 | 224 | 1.6 | 3.2 | 0.00 | 0.00 | 0.00 | 77 | 1010.6 |
| 20260507175615 | 18 | 262 | 0.0 | 1.6 | 0.00 | 0.00 | 0.00 | 75 | 1010.9 |
| 20260507174313 | 18 | 311 | 1.6 | 3.2 | 0.00 | 0.00 | 0.00 | 73 | 1011.1 |
| 20260507172910 | 18 | 244 | 3.2 | 6.4 | 0.00 | 0.00 | 0.00 | 71 | 1011.1 |
| 20260507171638 | 18 | 248 | 0.0 | 1.6 | 0.00 | 0.00 | 0.00 | 73 | 1011.1 |
| 20260507170203 | 18 | 231 | 1.6 | 3.2 | 0.00 | 0.00 | 0.00 | 75 | 1011.6 |
| 20260507164722 | 18 | 193 | 1.6 | 3.2 | 0.00 | 0.00 | 0.00 | 74 | 1011.6 |
| 20260507163243 | 19 | 241 | 3.2 | 6.4 | 0.00 | 0.00 | 0.00 | 74 | 1011.6 |
| 20260507161741 | 18 | 243 | 3.2 | 6.4 | 0.00 | 0.00 | 0.00 | 76 | 1011.8 |
| 20260507160537 | 18 | 241 | 4.8 | 6.4 | 0.00 | 0.00 | 0.00 | 78 | 1011.8 |
| 20260507155058 | 18 | 243 | 4.8 | 11.3 | 0.00 | 0.00 | 0.00 | 78 | 1011.9 |
| 20260507153743 | 18 | 239 | 4.8 | 11.3 | 0.00 | 0.00 | 0.00 | 79 | 1011.7 |
| 20260507152518 | 18 | 237 | 3.2 | 6.4 | 0.00 | 0.00 | 0.00 | 82 | 1011.9 |
| 20260507151243 | 18 | 226 | 3.2 | 6.4 | 0.00 | 0.00 | 0.00 | 82 | 1011.8 |
| 20260507150035 | 18 | 240 | 4.8 | 9.7 | 0.00 | 0.00 | 0.00 | 84 | 1012.0 |
| 20260507144638 | 18 | 216 | 1.6 | 3.2 | 0.00 | 0.00 | 0.00 | 88 | 1012.1 |
| 20260507143243 | 18 | 228 | 1.6 | 4.8 | 0.00 | 0.00 | 0.00 | 88 | 1012.2 |
| 20260507142042 | 18 | 235 | 3.2 | 3.2 | 0.00 | 0.00 | 0.00 | 89 | 1012.3 |
| 20260507140728 | 18 | 231 | 1.6 | 3.2 | 0.00 | 0.00 | 0.00 | 89 | 1012.2 |
| 20260507135528 | 18 | 214 | 0.0 | 3.2 | 0.00 | 0.00 | 0.00 | 88 | 1012.3 |
| 20260507134158 | 18 | 195 | 0.0 | 0.0 | 0.00 | 0.00 | 0.00 | 88 | 1012.4 |
| 20260507132832 | 18 | 195 | 0.0 | 1.6 | 0.00 | 0.00 | 0.00 | 88 | 1012.5 |
| 20260507131447 | 18 | 206 | 1.6 | 1.6 | 0.00 | 0.00 | 0.00 | 88 | 1012.4 |
| 20260507130143 | 18 | 204 | 0.0 | 1.6 | 0.00 | 0.00 | 0.00 | 87 | 1012.4 |
| 20260507124908 | 18 | 195 | 1.6 | 1.6 | 0.00 | 0.00 | 0.00 | 86 | 1012.2 |
| 20260507123413 | 19 | 0.0 | 0.0 | 0.00 | 0.00 | 0.00 | 85 | 1012.2 | |
| 20260507121917 | 19 | 0.0 | 0.0 | 0.00 | 0.00 | 0.00 | 84 | 1012.2 | |
| 20260507120703 | 19 | 0.0 | 0.0 | 0.00 | 0.00 | 0.00 | 84 | 1012.0 | |
| 20260507115222 | 20 | 125 | 0.0 | 1.6 | 0.00 | 0.00 | 0.00 | 82 | 1011.9 |
| 20260507113828 | 20 | 0.0 | 0.0 | 0.00 | 0.00 | 0.00 | 82 | 1011.9 | |
| 20260507112433 | 20 | 125 | 0.0 | 1.6 | 0.00 | 0.00 | 0.00 | 80 | 1011.7 |
| 20260507111013 | 20 | 138 | 1.6 | 3.2 | 0.00 | 0.00 | 0.00 | 80 | 1011.6 |
| 20260507105713 | 20 | 140 | 1.6 | 3.2 | 0.00 | 0.00 | 0.00 | 80 | 1011.7 |
| 20260507104438 | 20 | 149 | 1.6 | 4.8 | 0.00 | 0.00 | 0.00 | 79 | 1011.4 |
| 20260507103227 | 20 | 173 | 0.0 | 3.2 | 0.00 | 0.00 | 0.00 | 79 | 1011.5 |
| 20260507102006 | 21 | 179 | 1.6 | 6.4 | 0.00 | 0.00 | 0.00 | 78 | 1011.1 |
| 20260507100712 | 21 | 184 | 1.6 | 6.4 | 0.00 | 0.00 | 0.00 | 78 | 1011.2 |